When you browse on this site, cookies collect data to enhance your experience and personalize the content and advertising you see.
Visit our Privacy Policy to learn more. By continuing to use the site, you agree to this use of cookies and data.
  • en Suisse
  • Liste des pays
  • À 7 jours
  • Température de l'eau
  • Carte météo
  • Widgets météo
  • user-avatar
    Se connecter

    Météo par heure à Povarnino

    Ce jour, 18 Août, Dimanche

    Heure Température Précipitation Vent Pression Humidité
    00:00 +12°C° 0 mm 1 m/s 754 mmHg 81%
    01:00 +12°C° 0 mm 1 m/s 754 mmHg 83%
    02:00 +10°C° 0 mm 0 m/s 754 mmHg 85%
    03:00 +11°C° 0 mm 1 m/s 754 mmHg 85%
    04:00 +11°C° 0 mm 1 m/s 754 mmHg 86%
    05:00 +11°C° 0 mm 1 m/s 754 mmHg 87%
    06:00 +13°C° 0 mm 1 m/s 754 mmHg 81%
    07:00 +15°C° 0 mm 1 m/s 754 mmHg 75%
    08:00 +18°C° 0 mm 1 m/s 753 mmHg 69%
    09:00 +19°C° 0 mm 1 m/s 753 mmHg 65%
    10:00 +21°C° 0 mm 1 m/s 753 mmHg 62%
    11:00 +22°C° 0 mm 1 m/s 753 mmHg 58%
    12:00 +23°C° 0 mm 1 m/s 753 mmHg 55%
    13:00 +24°C° 0 mm 1 m/s 752 mmHg 52%
    14:00 +23°C° 0 mm 0 m/s 752 mmHg 50%
    15:00 +23°C° 0 mm 0 m/s 752 mmHg 52%
    16:00 +22°C° 0 mm 0 m/s 752 mmHg 54%
    17:00 +21°C° 0 mm 0 m/s 752 mmHg 56%
    18:00 +19°C° 0 mm 0 m/s 752 mmHg 63%
    19:00 +17°C° 0 mm 0 m/s 752 mmHg 71%
    20:00 +16°C° 0 mm 1 m/s 752 mmHg 78%
    21:00 +16°C° 0 mm 1 m/s 752 mmHg 80%
    22:00 +15°C° 0 mm 1 m/s 752 mmHg 82%
    23:00 +15°C° 0 mm 1 m/s 753 mmHg 85%

    Demain, 19 Août, Lundi

    Heure Température Précipitation Vent Pression Humidité
    00:00 +14°C° 0 mm 2 m/s 752 mmHg 86%
    01:00 +14°C° 0 mm 2 m/s 752 mmHg 88%
    02:00 +14°C° 0 mm 2 m/s 752 mmHg 89%
    03:00 +14°C° 0 mm 2 m/s 752 mmHg 88%
    04:00 +14°C° 0 mm 2 m/s 752 mmHg 86%
    05:00 +13°C° 0 mm 3 m/s 752 mmHg 84%
    06:00 +16°C° 0 mm 3 m/s 752 mmHg 81%
    07:00 +17°C° 0 mm 3 m/s 752 mmHg 77%
    08:00 +19°C° 0 mm 4 m/s 752 mmHg 74%
    09:00 +20°C° 0 mm 4 m/s 752 mmHg 74%
    10:00 +20°C° 0 mm 4 m/s 752 mmHg 74%
    11:00 +21°C° 0 mm 4 m/s 752 mmHg 74%
    12:00 +21°C° 0 mm 3 m/s 752 mmHg 77%
    13:00 +21°C° 0 mm 3 m/s 752 mmHg 79%
    14:00 +21°C° 0 mm 3 m/s 752 mmHg 82%
    15:00 +23°C° 0.1 mm 2 m/s 752 mmHg 81%
    16:00 +23°C° 0.1 mm 2 m/s 752 mmHg 81%
    17:00 +24°C° 0.1 mm 2 m/s 752 mmHg 80%
    18:00 +23°C° 0.3 mm 2 m/s 753 mmHg 85%
    19:00 +20°C° 0.3 mm 2 m/s 753 mmHg 90%
    20:00 +19°C° 0.3 mm 2 m/s 753 mmHg 95%
    21:00 +18°C° 0 mm 2 m/s 754 mmHg 96%
    22:00 +18°C° 0 mm 2 m/s 754 mmHg 96%
    23:00 +18°C° 0 mm 1 m/s 755 mmHg 96%

    Après-demain, 20 Août, Mardi

    Heure Température Précipitation Vent Pression Humidité
    00:00 +16°C° 0 mm 1 m/s 755 mmHg 95%
    01:00 +15°C° 0 mm 1 m/s 755 mmHg 94%
    02:00 +15°C° 0 mm 1 m/s 756 mmHg 93%
    03:00 +14°C° 0 mm 1 m/s 756 mmHg 92%
    04:00 +14°C° 0 mm 1 m/s 756 mmHg 92%
    05:00 +13°C° 0 mm 0 m/s 757 mmHg 91%
    06:00 +16°C° 0 mm 1 m/s 757 mmHg 87%
    07:00 +18°C° 0 mm 1 m/s 757 mmHg 84%
    08:00 +19°C° 0 mm 1 m/s 758 mmHg 80%
    09:00 +21°C° 0.1 mm 1 m/s 758 mmHg 74%
    10:00 +22°C° 0.1 mm 1 m/s 758 mmHg 68%
    11:00 +24°C° 0.1 mm 2 m/s 758 mmHg 61%
    12:00 +24°C° 0.4 mm 2 m/s 758 mmHg 64%
    13:00 +24°C° 0.4 mm 2 m/s 758 mmHg 67%
    14:00 +24°C° 0.4 mm 2 m/s 758 mmHg 71%
    15:00 +24°C° 0.2 mm 1 m/s 758 mmHg 71%
    16:00 +24°C° 0.2 mm 1 m/s 758 mmHg 71%
    17:00 +24°C° 0.2 mm 1 m/s 758 mmHg 72%
    18:00 +22°C° 0 mm 1 m/s 758 mmHg 76%
    19:00 +20°C° 0 mm 1 m/s 759 mmHg 80%
    20:00 +18°C° 0 mm 1 m/s 759 mmHg 84%
    21:00 +18°C° 0 mm 1 m/s 759 mmHg 84%
    22:00 +16°C° 0 mm 1 m/s 759 mmHg 85%
    23:00 +16°C° 0 mm 1 m/s 760 mmHg 85%

    21 Août, Mercredi

    Heure Température Précipitation Vent Pression Humidité
    00:00 +15°C° 0 mm 1 m/s 760 mmHg 85%
    01:00 +14°C° 0 mm 0 m/s 760 mmHg 85%
    02:00 +13°C° 0 mm 0 m/s 760 mmHg 85%
    03:00 +14°C° 0 mm 1 m/s 760 mmHg 86%
    04:00 +14°C° 0 mm 1 m/s 760 mmHg 87%
    05:00 +14°C° 0 mm 1 m/s 760 mmHg 87%
    06:00 +15°C° 0 mm 1 m/s 760 mmHg 85%
    07:00 +18°C° 0 mm 1 m/s 760 mmHg 82%
    08:00 +19°C° 0 mm 1 m/s 760 mmHg 80%
    09:00 +21°C° 0.1 mm 1 m/s 760 mmHg 75%
    10:00 +22°C° 0.1 mm 1 m/s 760 mmHg 71%
    11:00 +23°C° 0.1 mm 1 m/s 760 mmHg 67%
    12:00 +22°C° 0.8 mm 1 m/s 760 mmHg 73%
    13:00 +21°C° 0.8 mm 1 m/s 760 mmHg 79%
    14:00 +20°C° 0.8 mm 2 m/s 760 mmHg 86%
    15:00 +20°C° 0.5 mm 1 m/s 759 mmHg 88%
    16:00 +19°C° 0.5 mm 1 m/s 759 mmHg 91%
    17:00 +18°C° 0.5 mm 1 m/s 759 mmHg 94%
    18:00 +16°C° 0.7 mm 1 m/s 759 mmHg 95%
    19:00 +16°C° 0.7 mm 1 m/s 759 mmHg 95%
    20:00 +15°C° 0.7 mm 1 m/s 759 mmHg 96%
    21:00 +15°C° 0.2 mm 1 m/s 759 mmHg 96%
    22:00 +15°C° 0.2 mm 1 m/s 759 mmHg 97%
    23:00 +15°C° 0.2 mm 1 m/s 759 mmHg 97%

    22 Août, Jeudi

    Heure Température Précipitation Vent Pression Humidité
    00:00 +14°C° 0 mm 1 m/s 759 mmHg 96%
    01:00 +14°C° 0 mm 2 m/s 759 mmHg 96%
    02:00 +14°C° 0 mm 2 m/s 759 mmHg 96%
    03:00 +13°C° 0 mm 2 m/s 760 mmHg 96%
    04:00 +12°C° 0 mm 2 m/s 760 mmHg 97%
    05:00 +10°C° 0 mm 2 m/s 760 mmHg 97%
    06:00 +12°C° 0 mm 2 m/s 760 mmHg 95%
    07:00 +14°C° 0 mm 2 m/s 760 mmHg 93%
    08:00 +15°C° 0 mm 2 m/s 760 mmHg 90%
    09:00 +16°C° 0 mm 2 m/s 760 mmHg 80%
    10:00 +18°C° 0 mm 2 m/s 760 mmHg 71%
    11:00 +19°C° 0 mm 3 m/s 760 mmHg 61%
    12:00 +20°C° 0 mm 3 m/s 760 mmHg 58%
    13:00 +20°C° 0 mm 3 m/s 760 mmHg 56%
    14:00 +21°C° 0 mm 3 m/s 760 mmHg 53%
    15:00 +21°C° 0 mm 2 m/s 760 mmHg 56%
    16:00 +20°C° 0 mm 2 m/s 760 mmHg 60%
    17:00 +20°C° 0 mm 2 m/s 760 mmHg 63%
    18:00 +19°C° 0 mm 1 m/s 760 mmHg 70%
    19:00 +16°C° 0 mm 1 m/s 760 mmHg 77%
    20:00 +15°C° 0 mm 1 m/s 760 mmHg 85%
    21:00 +14°C° 0 mm 1 m/s 761 mmHg 87%
    22:00 +13°C° 0 mm 1 m/s 761 mmHg 89%
    23:00 +12°C° 0 mm 1 m/s 761 mmHg 91%

    23 Août, Vendredi

    Heure Température Précipitation Vent Pression Humidité
    00:00 +12°C° 0 mm 1 m/s 761 mmHg 91%
    01:00 +11°C° 0 mm 1 m/s 761 mmHg 91%
    02:00 +11°C° 0 mm 1 m/s 761 mmHg 91%
    03:00 +11°C° 0 mm 1 m/s 761 mmHg 92%
    04:00 +11°C° 0 mm 1 m/s 761 mmHg 92%
    05:00 +10°C° 0 mm 1 m/s 761 mmHg 92%
    06:00 +12°C° 0 mm 1 m/s 761 mmHg 87%
    07:00 +14°C° 0 mm 1 m/s 761 mmHg 81%
    08:00 +15°C° 0 mm 1 m/s 761 mmHg 76%
    09:00 +16°C° 0 mm 2 m/s 761 mmHg 71%
    10:00 +17°C° 0 mm 2 m/s 761 mmHg 67%
    11:00 +19°C° 0 mm 2 m/s 761 mmHg 62%
    12:00 +18°C° 0 mm 3 m/s 760 mmHg 63%
    13:00 +18°C° 0 mm 3 m/s 760 mmHg 64%
    14:00 +18°C° 0 mm 4 m/s 760 mmHg 65%
    15:00 +17°C° 0.1 mm 3 m/s 760 mmHg 72%
    16:00 +16°C° 0.1 mm 3 m/s 760 mmHg 79%
    17:00 +15°C° 0.1 mm 2 m/s 760 mmHg 85%
    18:00 +14°C° 0 mm 2 m/s 760 mmHg 89%
    19:00 +14°C° 0 mm 2 m/s 760 mmHg 93%
    20:00 +13°C° 0 mm 2 m/s 760 mmHg 96%
    21:00 +13°C° 0 mm 2 m/s 760 mmHg 96%
    22:00 +12°C° 0 mm 2 m/s 760 mmHg 97%
    23:00 +12°C° 0 mm 2 m/s 760 mmHg 97%
    Voir plus